Weather in Ozerny

Russia / Mari El Republic     56°34′42″N   47°07′24″E
temp.,
°C
wind,
m/s
gust,
m/s
humid.,
%
clouds,
%
prec.,
mm/h
press.,
hPa
HPBL,
m
7 march, sun
sun700:00−16wsw239770 0.0 101120
03:00−15wsw239877 0.1 101156
06:00−17wsw239996 0.1 101029
09:00−13ssw259793 0.1 1008235
12:00−9ssw4893100 0.1 1007511
15:00−7s51088100 0.1 1003776
18:00−7s61294100 0.5 999983
21:00−6s61294100 1.8 995945
8 march, mon
mon800:00−5s51194100 1.3 992739
03:00−5s3896100 2.1 990467
06:00−6wnw61194100 1.5 990751
09:00−8w5128493 1.6 993541
12:00−6w488967 0.0 995747
15:00−5wsw478680 0.1 997912
18:00−9wsw2393100 0.1 99873
21:00−12wnw369587 0.1 1001122
9 march, tue
tue900:00−14wnw239744 0.0 100355
03:00−17wnw239838 0.0 100648
06:00−19wnw229973 0.0 100821
09:00−16nw239681 0.1 1010224
12:00−11nnw2388100 0.0 1011578
15:00−11n3490100 0.1 1011633
18:00−14nnw2695100 0.1 1013267
21:00−15n389596 0.2 1014315
10 march, wed
wed1000:00−20n399890 0.0 1015234
03:00−23n389790 0.1 1016248
06:00−25n399692 0.0 1018263
09:00−24n489493 0.0 1020341
12:00−20n479281 0.0 1021522
15:00−18nnw478781 0.0 1022655
18:00−21nnw359497 0.0 102388
21:00−24nw339649 0.0 102469
11 march, thu
thu1100:00−25wnw23983 0.0 102454
03:00−25w349913 0.0 102584
06:00−23w389780 0.0 1024209
09:00−18wnw379589 0.1 1025352
12:00−12wnw4793100 0.1 1024497
15:00−7nw488798 0.1 1025679
18:00−11nw389143 0.0 1026167
21:00−13nw389422 0.0 1028176